EW0608 Weather Reports


time (UTC)temp
F
wind
direction
speed
knots
gust
knots
rain 1hr
in
rain 24hr
in
rain mn
in
humidity
%
barometer
mb
20260504234855 70 65 0.0 1.7 0.00 0.31 0.31 51 1007.9
20260504234549 71 65 0.0 3.5 0.00 0.31 0.31 49 1007.7
20260504234348 71 63 0.0 3.5 0.00 0.31 0.31 47 1007.9
20260504233841 72 153 0.9 2.6 0.00 0.31 0.31 48 1007.8
20260504233354 72 81 0.9 2.6 0.00 0.31 0.31 46 1007.8
20260504233027 72 138 0.0 2.6 0.00 0.31 0.31 45 1007.6
20260504232926 72 95 0.0 2.6 0.00 0.31 0.31 45 1007.8
20260504232434 72 71 0.0 2.6 0.00 0.31 0.31 45 1007.7
20260504231841 72 192 0.9 2.6 0.00 0.31 0.31 49 1007.7
20260504231555 72 94 0.0 2.6 0.00 0.31 0.31 49 1007.5
20260504231355 73 94 0.0 2.6 0.00 0.31 0.31 45 1007.7
20260504230907 73 136 0.9 2.6 0.00 0.31 0.31 43 1007.7
20260504230340 73 94 0.9 3.5 0.00 0.31 0.31 44 1007.7
20260504225849 74 94 0.0 3.5 0.00 0.34 0.31 42 1007.6
20260504225342 74 96 0.9 1.7 0.00 0.34 0.31 40 1007.6
20260504224855 74 96 0.9 1.7 0.00 0.34 0.31 42 1007.6
20260504224508 73 97 0.0 0.9 0.01 0.34 0.31 42 1007.5
20260504224406 74 97 0.0 1.7 0.01 0.34 0.31 46 1007.7
20260504223838 75 102 0.0 3.5 0.02 0.34 0.31 40 1007.7
20260504223351 75 216 1.7 3.5 0.02 0.34 0.31 39 1007.7
20260504223049 74 130 0.9 5.2 0.02 0.34 0.31 39 1007.5
20260504222849 75 190 1.7 5.2 0.02 0.34 0.31 39 1007.7
20260504222400 74 212 3.5 6.1 0.02 0.34 0.31 42 1007.6
20260504221852 75 86 0.9 6.1 0.02 0.34 0.31 39 1007.6
20260504221557 74 295 0.9 6.1 0.02 0.34 0.31 39 1007.5
20260504221346 75 99 1.7 6.1 0.02 0.34 0.31 39 1007.7
20260504220839 75 114 0.9 5.2 0.02 0.34 0.31 39 1007.6
20260504220353 75 124 0.9 5.2 0.02 0.34 0.31 39 1007.7
20260504220043 75 198 1.7 5.2 0.02 0.34 0.31 38 1007.6
20260504215843 75 257 1.7 5.2 0.02 0.35 0.31 38 1007.7
20260504215335 76 80 2.6 5.2 0.03 0.35 0.31 38 1007.6
20260504214909 76 86 1.7 7.0 0.03 0.35 0.31 38 1007.7
20260504214542 75 161 1.7 7.0 0.02 0.34 0.30 38 1007.6
20260504214342 76 144 2.6 7.0 0.02 0.34 0.30 38 1007.7
20260504213853 75 62 0.9 7.0 0.02 0.33 0.29 38 1007.7
20260504213346 76 360 1.7 7.8 0.02 0.33 0.29 37 1007.6
20260504213044 75 183 0.9 7.8 0.02 0.33 0.28 37 1007.5
20260504212839 76 63 2.6 7.8 0.02 0.33 0.29 37 1007.6
20260504212352 76 175 1.7 7.8 0.02 0.33 0.29 37 1007.5
20260504211905 76 161 2.6 6.1 0.02 0.33 0.29 36 1007.5
20260504211515 76 261 0.9 6.1 0.04 0.33 0.28 35 1007.4
20260504211414 76 220 0.9 7.8 0.04 0.33 0.29 36 1007.5
20260504210846 77 49 1.7 7.8 0.04 0.33 0.29 35 1007.5
20260504210400 78 123 2.6 7.8 0.04 0.33 0.29 34 1007.4
20260504210052 77 178 0.9 7.8 0.04 0.33 0.28 34 1007.4
20260504205848 78 49 0.9 7.8 0.05 0.37 0.29 35 1007.5
20260504205341 78 226 0.9 6.1 0.04 0.36 0.28 35 1007.4
20260504204835 77 174 2.6 7.0 0.04 0.36 0.28 35 1007.4
20260504204549 76 97 0.9 7.8 0.04 0.36 0.28 36 1007.3
20260504204449 76 263 1.7 7.8 0.04 0.36 0.28 35 1007.4
20260504203935 78 22 0.9 2.6 0.03 0.35 0.27 34 1007.4
20260504203343 76 36 0.9 5.2 0.03 0.35 0.27 35 1007.6
20260504203037 75 337 0.9 7.0 0.03 0.35 0.27 35 1007.6
20260504202837 76 75 1.7 7.0 0.03 0.35 0.27 35 1007.7
20260504202349 75 159 3.5 7.8 0.03 0.35 0.27 35 1007.7
20260504201843 75 207 1.7 7.8 0.03 0.35 0.27 35 1007.9
20260504201559 75 207 1.7 7.8 0.01 0.33 0.25 34 1007.7
20260504201354 76 159 1.7 7.8 0.01 0.33 0.25 34 1007.8
20260504200847 76 126 2.6 7.8 0.01 0.33 0.25 34 1007.8
20260504200342 76 157 0.9 8.7 0.01 0.33 0.25 35 1007.9
20260504200052 75 153 3.5 8.7 0.01 0.33 0.25 34 1007.9
20260504195850 76 186 1.7 4.3 0.00 0.34 0.24 35 1008.0
20260504195424 76 84 0.9 4.3 0.00 0.34 0.24 35 1008.0
20260504194910 77 86 0.9 7.0 0.00 0.34 0.24 35 1008.1
20260504194543 76 82 0.0 7.0 0.00 0.34 0.24 34 1008.1
20260504194341 76 70 0.9 7.0 0.00 0.34 0.24 34 1008.2
20260504193914 76 115 0.9 7.0 0.00 0.34 0.24 35 1008.3
20260504193405 76 217 1.7 7.0 0.00 0.34 0.24 34 1008.4
20260504193038 76 159 1.7 7.0 0.01 0.34 0.24 33 1008.4
20260504192837 77 69 1.7 7.8 0.01 0.34 0.24 34 1008.4
20260504192349 77 62 1.7 7.0 0.01 0.34 0.24 34 1008.5
20260504191843 77 5 1.7 7.0 0.01 0.34 0.24 35 1008.6
20260504191606 76 340 1.7 7.0 0.01 0.34 0.24 33 1008.7
20260504191355 77 153 3.5 7.0 0.01 0.34 0.24 34 1008.6
20260504190849 75 134 0.9 7.8 0.01 0.34 0.24 36 1008.8
20260504190403 74 120 3.5 7.0 0.01 0.34 0.24 35 1008.9
20260504190100 74 155 1.7 7.0 0.01 0.34 0.24 35 1009.0
20260504185852 75 75 1.7 7.8 0.01 0.34 0.24 34 1009.0
20260504185406 75 129 0.9 7.8 0.02 0.34 0.24 34 1009.0
20260504184836 75 74 1.7 4.3 0.02 0.34 0.24 35 1009.1
20260504184550 75 145 0.9 4.3 0.02 0.34 0.24 34 1009.2
20260504184349 75 163 1.7 4.3 0.02 0.34 0.24 34 1009.2
20260504183841 75 89 0.0 7.0 0.02 0.34 0.24 34 1009.1
20260504183353 76 156 4.3 7.8 0.04 0.34 0.24 32 1009.2
20260504183047 77 221 1.7 9.6 0.03 0.33 0.23 31 1009.2
20260504182846 78 140 4.3 9.6 0.03 0.33 0.23 31 1009.2
20260504182344 78 98 3.5 9.6 0.03 0.33 0.23 32 1009.3
20260504181837 77 135 1.7 7.0 0.07 0.33 0.23 33 1009.2
20260504181555 77 149 2.6 7.0 0.07 0.33 0.23 32 1009.3
20260504181350 78 201 3.5 7.8 0.07 0.33 0.23 32 1009.2
20260504180842 77 154 1.7 7.8 0.07 0.33 0.23 33 1009.4
20260504180355 77 309 4.3 7.8 0.09 0.33 0.23 32 1009.4
20260504180045 75 80 2.6 7.0 0.10 0.33 0.23 33 1009.5
20260504175844 76 355 3.5 7.0 0.14 0.33 0.23 33 1009.5
20260504175417 75 139 2.6 6.1 0.13 0.32 0.22 33 1009.6
20260504174846 76 134 1.7 7.0 0.14 0.32 0.22 33 1009.6
20260504174539 76 190 2.6 7.0 0.14 0.32 0.22 33 1009.8
20260504174339 76 331 1.7 12.2 0.14 0.32 0.22 34 1009.6
20260504173347 76 44 1.7 7.8 0.12 0.30 0.20 34 1009.8
20260504173039 75 74 1.7 7.8 0.12 0.30 0.20 33 1010.0
20260504172838 76 35 2.6 8.7 0.12 0.30 0.20 33 1010.0
20260504172351 76 130 3.5 8.7 0.12 0.30 0.20 32 1010.1
20260504171843 76 36 3.5 8.7 0.08 0.26 0.16 35 1010.1
20260504171516 74 124 4.3 7.0 0.08 0.26 0.16 34 1010.1
20260504171415 75 347 3.5 6.1 0.08 0.26 0.16 34 1010.1
20260504170848 74 317 2.6 8.7 0.08 0.26 0.16 33 1010.2
20260504170341 73 55 3.5 8.7 0.06 0.24 0.14 34 1010.3
20260504081509 40 309 0.0 0.0 0.00 0.36 0.00 85 1014.5
20260504050355 39 309 0.0 0.0 0.00 0.36 0.00 83 1014.9
20260504050004 38 309 0.0 0.0 0.00 0.36 0.00 84 1015.3
20260504045904 39 309 0.0 0.0 0.00 0.36 0.00 84 1014.9
20260504045412 39 309 0.0 0.0 0.00 0.36 0.00 83 1014.9
20260504044905 39 309 0.0 0.0 0.00 0.36 0.00 83 1015.0
20260504044538 39 309 0.0 0.0 0.00 0.36 0.00 81 1015.4
20260504044337 39 309 0.0 0.0 0.00 0.36 0.00 81 1015.0
20260504043850 40 309 0.0 0.0 0.00 0.36 0.00 82 1015.0
20260504043402 40 309 0.0 0.0 0.00 0.36 0.00 81 1015.0
20260504043055 39 309 0.0 0.0 0.00 0.36 0.00 81 1015.4
20260504042853 40 309 0.0 0.0 0.00 0.36 0.00 81 1015.0
20260504042345 40 309 0.0 0.0 0.00 0.36 0.00 81 1015.0
20260504041836 40 309 0.0 0.0 0.00 0.36 0.00 80 1015.0
20260504041550 40 309 0.0 0.0 0.00 0.36 0.00 80 1015.4
20260504041350 41 309 0.0 0.0 0.00 0.36 0.00 80 1014.9
20260504040840 41 309 0.0 0.0 0.00 0.36 0.00 79 1015.0
20260504040353 41 309 0.0 0.0 0.00 0.36 0.00 78 1015.0
20260504040003 40 309 0.0 0.0 0.00 0.36 0.36 78 1015.5
20260504035903 41 309 0.0 0.0 0.00 0.36 0.36 77 1015.0
20260504035434 41 309 0.0 0.0 0.00 0.36 0.36 76 1015.0
20260504034902 41 309 0.0 0.0 0.00 0.36 0.36 77 1015.0
20260504034554 41 309 0.0 0.0 0.00 0.36 0.36 78 1015.4
20260504034354 41 309 0.0 0.0 0.00 0.36 0.36 78 1014.9
20260504033845 42 309 0.0 0.0 0.00 0.36 0.36 77 1015.0
20260504033337 42 309 0.0 0.0 0.00 0.36 0.36 77 1014.9
20260504033051 41 309 0.0 0.0 0.00 0.36 0.36 76 1015.2
20260504032850 42 309 0.0 0.0 0.00 0.36 0.36 76 1014.7
20260504032401 42 309 0.0 0.0 0.00 0.36 0.36 76 1014.7
20260504031853 43 309 0.0 0.0 0.00 0.36 0.36 76 1014.7
20260504031524 42 309 0.0 0.0 0.00 0.36 0.36 76 1015.1
20260504030910 43 309 0.0 0.0 0.00 0.36 0.36 72 1014.7
20260504030340 43 309 0.0 0.0 0.00 0.36 0.36 72 1014.8
20260504030049 43 309 0.0 0.0 0.00 0.36 0.36 71 1015.2
20260504025849 44 309 0.0 0.0 0.00 0.36 0.36 70 1014.7
20260504025346 44 309 0.0 0.0 0.00 0.36 0.36 69 1014.7
20260504024837 44 309 0.0 0.0 0.00 0.36 0.36 74 1014.8
20260504024606 43 23 0.0 0.0 0.00 0.36 0.36 74 1015.2
20260504024350 44 23 0.0 0.0 0.00 0.36 0.36 73 1014.8
20260504023843 44 23 0.0 0.0 0.00 0.36 0.36 71 1014.8
20260504023356 45 23 0.0 0.0 0.00 0.36 0.36 70 1014.7
20260504023049 44 23 0.0 0.0 0.00 0.36 0.36 70 1015.1
20260504022847 45 23 0.0 0.0 0.00 0.36 0.36 70 1014.6
20260504022338 45 23 0.0 0.0 0.00 0.36 0.36 70 1014.7
20260504021530 44 23 0.0 0.0 0.00 0.36 0.36 71 1015.2
20260504020840 45 23 0.0 0.0 0.00 0.36 0.36 69 1014.6
20260504020352 45 23 0.0 0.0 0.00 0.36 0.36 69 1014.5
20260504020043 45 23 0.0 0.0 0.00 0.36 0.36 68 1014.9
20260504015841 45 23 0.0 0.0 0.00 0.36 0.36 66 1014.5
20260504015412 46 23 0.0 0.0 0.00 0.36 0.36 66 1014.4
20260504014843 46 23 0.0 0.0 0.00 0.36 0.36 65 1014.4
20260504014604 45 23 0.0 0.0 0.00 0.36 0.36 64 1014.7
20260504014355 46 23 0.0 0.0 0.00 0.36 0.36 64 1014.3
20260504013848 46 23 0.0 0.0 0.00 0.36 0.36 64 1014.2
20260504013341 47 23 0.0 0.0 0.00 0.36 0.36 66 1014.1
20260504013056 46 23 0.0 0.0 0.00 0.36 0.36 65 1014.5
20260504012852 47 23 0.0 0.0 0.00 0.36 0.36 62 1014.1
20260504012341 47 23 0.0 0.0 0.00 0.36 0.36 60 1014.1
20260504011854 47 23 0.0 0.0 0.00 0.36 0.36 60 1014.0
20260504011545 47 23 0.0 0.0 0.00 0.36 0.36 59 1014.4
20260504011344 48 23 0.0 0.0 0.00 0.36 0.36 59 1014.0
20260504010857 48 23 0.0 0.0 0.00 0.36 0.36 60 1014.0
20260504010350 48 23 0.0 0.0 0.00 0.36 0.36 59 1014.0
20260504010040 48 23 0.0 0.0 0.00 0.36 0.36 58 1014.3
20260504005837 48 23 0.0 0.0 0.00 0.36 0.36 57 1013.9
20260504005349 49 23 0.0 0.0 0.00 0.36 0.36 57 1014.0
20260504004840 49 23 0.0 0.0 0.00 0.36 0.36 55 1013.9
20260504004553 49 23 0.0 0.0 0.00 0.36 0.36 55 1014.3
20260504004352 49 23 0.0 0.0 0.00 0.36 0.36 54 1013.9
20260504003845 50 23 0.0 0.0 0.00 0.36 0.36 55 1013.8
20260504003340 51 23 0.0 0.0 0.00 0.36 0.36 53 1013.8
20260504003010 51 23 0.0 0.0 0.00 0.36 0.36 52 1014.2
20260504002909 51 23 0.0 0.0 0.00 0.36 0.36 51 1013.8
20260504002359 52 23 0.0 0.0 0.00 0.36 0.36 50 1013.7
20260504001851 52 23 0.0 0.0 0.00 0.36 0.36 50 1013.7
20260504001550 52 23 0.0 0.0 0.00 0.36 0.36 50 1014.2
20260504001347 52 23 0.0 0.0 0.00 0.36 0.36 51 1013.7
20260504000838 53 23 0.0 0.0 0.00 0.36 0.36 50 1013.7
20260504000354 53 23 0.0 0.0 0.00 0.36 0.36 50 1013.7
20260504000059 53 23 0.0 0.0 0.00 0.36 0.36 50 1014.1
20260503235414 55 23 0.0 0.0 0.00 0.36 0.36 50 1013.5